Retour au catalogue

TITAN 3C TRANSTAGE DEB

LostHEO
NORAD 34163·DEBRIS·🇺🇸 United States

Lancé Dec 21, 1965 depuis Cape Canaveral Space Force Station

Loading…

Prochains Passages (prochaines 24 heures)

TLE

PériméSource: Space-Track

Époque: Dec 7, 2025, 10:50 UTC

1 34163U 65108CW  25341.45164660 -.00000085  00000-0  00000-0 0  9998
2 34163  26.5966 101.9498 6703293 204.8699 107.4767  2.49400419 19503

Suivez TITAN 3C TRANSTAGE DEB en temps réel avec AllMySat

Download on the App Store